Weather History for Bismarck, ND

Change the Weather History Date:

Friday, March 29, 2013

  Actual Average Record
Temperature  
Mean Temperature 36 °F 36 °F  
Max Temperature 48 °F 48 °F 80 °F (1967)
Min Temperature 24 °F 24 °F -7 °F (1964)
Degree Days  
Heating Degree Days 29 29  
Month to date heating degree days 1244 1032  
Since 1 July heating degree days 7553 7463  
Cooling Degree Days 0 0  
Month to date cooling degree days 0 0  
Year to date cooling degree days 0 0  
Moisture  
Dew Point 27 °F    
Average Humidity 80    
Maximum Humidity 100    
Minimum Humidity 60    
Precipitation  
Precipitation 0.00 in 0.03 in 0.60 in (1916)
Month to date precipitation 0.83 0.80  
Year to date precipitation 1.42 1.74  
Snow  
Snow 0.00 in 0.30 in 8.80 in (1916)
Month to date snowfall 6.9 8.6  
Since 1 July snowfall 35.5 46.1  
Snow Depth 0.00 in    
Sea Level Pressure  
Sea Level Pressure 30.14 in    
Wind  
Wind Speed 5 mph (ENE)    
Max Wind Speed 14 mph    
Max Gust Speed 17 mph    
Visibility 3 miles    
Events Fog    
T = Trace of Precipitation, MM = Missing Value Source: NWS Daily Summary

Daily Weather History Graph

Daily Weather History Graph

Search for Another Location

Airport:

Trip Planner

Search our weather history database for the weather conditions in past years. The results will help you decide how hot, cold, wet, or windy it might be!

Date:

Astronomy

Mar. 29, 2013 Rise Set
Actual Time 7:27 AM CDT 8:08 PM CDT
Civil Twilight 6:57 AM CDT 8:39 PM CDT
Nautical Twilight 6:20 AM CDT 9:15 PM CDT
Astronomical Twilight 5:42 AM CDT 9:53 PM CDT
Moon 11:24 PM CDT (3/29) 8:26 AM CDT (3/29)
Length of Visible Light 13h 42m
Length of Day
12h 40m
Waning Gibbous, 93% of the Moon is Illuminated
Mar 29
Waning Gibbous
Apr 2
Last Quarter
Apr 10
New
Apr 18
First Quarter
Apr 25
Full

Hourly Weather History & Observations

Time (CDT) Temp. Windchill Dew Point Humidity Pressure Visibility Wind Dir Wind Speed Gust Speed Precip Events Conditions
12:00 AM 27.0 °F 18.7 °F 26.1 °F 96% 30.17 in 0.2 mi ENE 8.1 mph - N/A Fog Light Freezing Fog
12:48 AM 26.6 °F 19.1 °F 26.6 °F 100% 30.17 in 0.2 mi ENE 6.9 mph - N/A Fog Light Freezing Fog
12:52 AM 27.0 °F 20.5 °F 26.1 °F 96% 30.25 in 0.2 mi ENE 5.8 mph - N/A Fog Light Freezing Fog
1:07 AM 26.6 °F 19.1 °F 26.6 °F 100% 30.18 in 0.2 mi ENE 6.9 mph - N/A Fog Light Freezing Fog
1:32 AM 26.1 °F 20.5 °F 26.1 °F 100% 30.18 in 0.2 mi East 4.6 mph - N/A Fog Light Freezing Fog
1:44 AM 26.1 °F 21.9 °F 25.0 °F 96% 30.18 in 0.2 mi ENE 3.5 mph - N/A Fog Light Freezing Fog
1:52 AM 26.1 °F 19.4 °F 25.0 °F 96% 30.25 in 0.2 mi East 5.8 mph - N/A Fog Light Freezing Fog
2:33 AM 25.0 °F 19.3 °F 25.0 °F 100% 30.17 in 0.2 mi East 4.6 mph - N/A Fog Light Freezing Fog
2:52 AM 25.0 °F 18.1 °F 24.1 °F 96% 30.23 in 0.2 mi ENE 5.8 mph - N/A Fog Light Freezing Fog
3:52 AM 25.0 °F 19.3 °F 24.1 °F 96% 30.21 in 0.2 mi East 4.6 mph - N/A Fog Light Freezing Fog
4:41 AM 25.0 °F 20.7 °F 24.1 °F 96% 30.14 in 0.5 mi ENE 3.5 mph - N/A Fog Light Freezing Fog
4:52 AM 24.1 °F 18.2 °F 23.0 °F 96% 30.20 in 0.2 mi NE 4.6 mph - N/A Fog Light Freezing Fog
5:02 AM 25.0 °F 20.7 °F 23.0 °F 92% 30.14 in 0.2 mi East 3.5 mph - N/A Fog Light Freezing Fog
5:31 AM 25.0 °F 20.7 °F 23.0 °F 92% 30.14 in 0.2 mi ENE 3.5 mph - N/A Fog Light Freezing Fog
5:52 AM 25.0 °F 19.3 °F 23.0 °F 92% 30.20 in 0.2 mi NE 4.6 mph - N/A Fog Light Freezing Fog
6:18 AM 24.1 °F 16.0 °F 21.9 °F 91% 30.14 in 0.5 mi ENE 6.9 mph - N/A Fog Light Freezing Fog
6:52 AM 24.1 °F 18.2 °F 21.9 °F 91% 30.20 in 0.5 mi ENE 4.6 mph - N/A Fog Light Freezing Fog
7:14 AM 24.1 °F - 21.9 °F 91% 30.14 in 0.2 mi Calm Calm - N/A Fog Light Freezing Fog
7:36 AM 24.1 °F 19.7 °F 21.9 °F 91% 30.13 in 0.5 mi ENE 3.5 mph - N/A Fog Light Freezing Fog
7:48 AM 24.8 °F 20.5 °F 21.2 °F 86% 30.13 in 0.2 mi ENE 3.5 mph - N/A Fog Light Freezing Fog
7:52 AM 24.1 °F 17.0 °F 21.9 °F 91% 30.20 in 0.2 mi ENE 5.8 mph - N/A Fog Light Freezing Fog
8:15 AM 24.1 °F 17.0 °F 21.9 °F 91% 30.13 in 0.5 mi ENE 5.8 mph - N/A Fog Light Freezing Fog
8:52 AM 25.0 °F 20.7 °F 23.0 °F 92% 30.20 in 0.5 mi ENE 3.5 mph - N/A   Overcast
9:00 AM 25.0 °F 18.1 °F 23.0 °F 92% 30.13 in 2.0 mi ENE 5.8 mph - N/A   Overcast
9:20 AM 26.1 °F 20.5 °F 24.1 °F 92% 30.13 in 3.0 mi ENE 4.6 mph - N/A   Overcast
9:52 AM 27.0 °F 20.5 °F 25.0 °F 92% 30.19 in 4.0 mi ENE 5.8 mph - N/A   Overcast
10:06 AM 27.0 °F 19.5 °F 25.0 °F 92% 30.11 in 4.0 mi East 6.9 mph - N/A   Overcast
10:52 AM 28.9 °F 25.2 °F 27.0 °F 92% 30.17 in 4.0 mi East 3.5 mph - N/A   Overcast
11:52 AM 32.0 °F - 28.9 °F 88% 30.17 in 6.0 mi Calm Calm - N/A   Overcast
12:52 PM 37.0 °F - 32.0 °F 82% 30.13 in 8.0 mi Calm Calm - N/A   Mostly Cloudy
1:52 PM 41.0 °F 37.1 °F 34.0 °F 76% 30.10 in 8.0 mi NNE 5.8 mph - N/A   Overcast
2:52 PM 42.1 °F 39.2 °F 34.0 °F 73% 30.09 in 9.0 mi East 4.6 mph - N/A   Overcast
3:52 PM 45.0 °F 40.1 °F 36.0 °F 71% 30.04 in 10.0 mi East 9.2 mph - N/A   Mostly Cloudy
4:52 PM 46.0 °F 39.9 °F 36.0 °F 68% 30.02 in 10.0 mi East 13.8 mph - N/A   Mostly Cloudy
5:52 PM 46.0 °F 40.6 °F 34.0 °F 63% 30.03 in 10.0 mi NE 11.5 mph - N/A   Mostly Cloudy
6:52 PM 44.1 °F 39.5 °F 35.1 °F 71% 30.04 in 10.0 mi NE 8.1 mph - N/A   Overcast
7:52 PM 41.0 °F 36.4 °F 33.1 °F 73% 30.05 in 10.0 mi NNE 6.9 mph - N/A   Mostly Cloudy
8:52 PM 37.0 °F 32.4 °F 32.0 °F 82% 30.06 in 9.0 mi NNE 5.8 mph - N/A   Clear
9:52 PM 32.0 °F 27.5 °F 30.0 °F 92% 30.07 in 7.0 mi SSE 4.6 mph - N/A   Clear
10:52 PM 30.9 °F 27.5 °F 28.9 °F 92% 30.06 in 6.0 mi South 3.5 mph - N/A   Clear
11:52 PM 32.0 °F - 28.9 °F 88% 30.05 in 6.0 mi Calm Calm - N/A   Clear